FW0929 Weather Reports


Display with metric or nautical units.
time (UTC)temp
F
wind
direction
speed
MPH
gust
MPH
rain 1hr
in
rain 24hr
in
rain mn
in
humidity
%
barometer
mb
20180222090017 26 30 6.0 13.0 0.00 0.00 0.00 83 1036.5
20180222084515 26 65 3.0 11.0 0.00 0.00 0.00 83 1036.8
20180222083014 26 26 4.0 11.0 0.00 0.00 0.00 83 1036.8
20180222081510 26 329 3.0 10.0 0.00 0.00 0.00 83 1037.4
20180222080013 26 320 4.0 9.0 0.00 0.00 0.00 82 1037.7
20180222074516 26 14 3.0 10.0 0.00 0.00 0.00 81 1037.8
20180222073006 25 355 5.0 12.0 0.00 0.00 0.00 81 1037.8
20180222071509 25 9 3.0 9.0 0.00 0.00 0.00 81 1038.0
20180222070002 25 27 3.0 9.0 0.00 0.00 0.00 81 1037.8
20180222064503 25 355 3.0 8.0 0.00 0.00 0.00 82 1038.1
20180222063002 25 355 4.0 8.0 0.00 0.00 0.00 82 1038.1
20180222061454 24 319 3.0 10.0 0.00 0.00 0.00 82 1038.1
20180222055951 24 12 2.0 9.0 0.00 0.00 0.00 82 1038.0
20180222054450 24 5 3.0 8.0 0.00 0.00 0.00 82 1038.3
20180222052950 24 317 1.0 6.0 0.00 0.00 0.00 82 1038.3
20180222051448 24 5 1.0 5.0 0.00 0.00 0.00 82 1038.3
20180222045949 24 355 2.0 4.0 0.00 0.00 0.00 81 1038.7
20180222044446 24 326 2.0 5.0 0.00 0.00 0.00 81 1038.9
20180222042948 24 360 2.0 5.0 0.00 0.00 0.00 80 1039.3
20180222041450 24 23 2.0 5.0 0.00 0.00 0.00 80 1039.6
20180222035948 24 343 0.0 4.0 0.00 0.00 0.00 80 1039.6
20180222034444 24 355 3.0 5.0 0.00 0.00 0.00 79 1039.5
20180222032942 24 320 2.0 5.0 0.00 0.00 0.00 78 1039.5
20180222031442 24 360 0.0 4.0 0.00 0.00 0.00 77 1039.4
20180222025941 24 355 0.0 4.0 0.00 0.01 0.00 77 1039.6
20180222024444 24 345 4.0 9.0 0.00 0.01 0.00 76 1039.4
20180222022944 25 306 3.0 8.0 0.00 0.01 0.00 76 1039.4
20180222021440 25 340 4.0 8.0 0.00 0.01 0.00 76 1039.4
20180222015940 25 313 3.0 8.0 0.00 0.01 0.00 76 1039.4
20180222014438 25 299 1.0 8.0 0.00 0.01 0.00 75 1039.4
20180222012938 25 305 3.0 8.0 0.00 0.01 0.00 74 1039.6
20180222011440 26 313 3.0 8.0 0.00 0.01 0.00 73 1039.5
20180222005940 26 284 2.0 9.0 0.00 0.01 0.00 74 1039.5
20180222004436 26 326 1.0 5.0 0.00 0.01 0.00 74 1039.6
20180222002933 26 297 3.0 6.0 0.00 0.01 0.00 74 1039.2
20180222001433 26 319 0.0 4.0 0.00 0.01 0.00 74 1038.8
20180221235930 26 302 0.0 5.0 0.00 0.03 0.00 74 1038.5
20180221234429 26 337 1.0 6.0 0.00 0.03 0.00 73 1038.4
20180221232926 27 350 3.0 6.0 0.00 0.03 0.00 72 1038.4
20180221231425 27 328 2.0 5.0 0.00 0.03 0.00 71 1038.3
20180221225926 27 360 3.0 8.0 0.00 0.04 0.00 69 1038.2
20180221224426 27 13 3.0 8.0 0.00 0.04 0.00 69 1037.9
20180221222923 27 345 3.0 10.0 0.00 0.04 0.00 69 1037.9
20180221221421 28 271 3.0 9.0 0.00 0.04 0.00 69 1038.0
20180221215919 28 336 4.0 8.0 0.00 0.09 0.00 69 1037.5
20180221214425 28 307 5.0 9.0 0.00 0.09 0.00 69 1037.5
20180221212918 28 288 3.0 8.0 0.00 0.09 0.00 69 1037.5
20180221211419 28 299 3.0 9.0 0.00 0.09 0.00 68 1037.4
20180221205917 28 294 2.0 7.0 0.00 0.15 0.00 70 1037.4
20180221204416 28 298 2.0 8.0 0.00 0.15 0.00 71 1037.3
20180221202915 28 297 1.0 6.0 0.00 0.15 0.00 70 1037.3
20180221201414 28 297 4.0 9.0 0.00 0.15 0.00 69 1037.4
20180221195914 28 306 3.0 11.0 0.00 0.19 0.00 69 1037.2
20180221194411 27 273 3.0 11.0 0.00 0.19 0.00 74 1037.1
20180221192912 27 294 4.0 10.0 0.00 0.19 0.00 73 1037.1
20180221191409 28 313 4.0 8.0 0.00 0.19 0.00 72 1037.2
20180221185908 27 279 3.0 8.0 0.00 0.37 0.00 72 1037.1
20180221184406 28 296 5.0 12.0 0.00 0.37 0.00 72 1036.8
20180221182906 27 273 2.0 11.0 0.00 0.37 0.00 73 1036.5
20180221181401 27 315 4.0 8.0 0.00 0.37 0.00 72 1036.6
20180221175858 26 313 5.0 11.0 0.00 0.37 0.00 71 1036.5
20180221174357 27 300 5.0 10.0 0.00 0.37 0.00 73 1036.6
20180221172853 26 282 3.0 11.0 0.00 0.37 0.00 75 1036.6
20180221171353 26 263 6.0 13.0 0.00 0.37 0.00 75 1036.5
20180221165849 25 277 2.0 12.0 0.00 0.37 0.00 77 1036.4
20180221164349 25 287 5.0 12.0 0.00 0.37 0.00 76 1036.3
20180221162849 25 279 7.0 15.0 0.00 0.37 0.00 76 1036.2
20180221161348 25 242 9.0 16.0 0.00 0.37 0.00 77 1036.0
20180221155842 25 239 5.0 13.0 0.00 0.42 0.00 76 1035.5
20180221154340 24 296 5.0 12.0 0.00 0.42 0.00 77 1035.4
20180221152841 24 307 6.0 13.0 0.00 0.42 0.00 78 1034.9
20180221151339 24 273 6.0 11.0 0.00 0.42 0.00 80 1034.7
20180221145835 24 292 6.0 10.0 0.00 0.51 0.00 80 1034.4
20180221144333 23 238 7.0 12.0 0.00 0.51 0.00 79 1034.3
20180221142833 23 310 8.0 16.0 0.00 0.51 0.00 78 1033.9
20180221141325 23 314 5.0 16.0 0.00 0.51 0.00 81 1033.3
20180221135825 23 297 6.0 12.0 0.00 0.53 0.00 82 1033.0
20180221134321 23 310 7.0 13.0 0.00 0.53 0.00 82 1032.5
20180221132816 23 284 4.0 13.0 0.00 0.53 0.00 83 1032.3
20180221131316 23 294 6.0 14.0 0.00 0.53 0.00 82 1032.1
20180221125811 23 277 7.0 12.0 0.00 0.53 0.00 83 1031.9
20180221124310 23 272 4.0 11.0 0.00 0.53 0.00 84 1031.6
20180221122809 23 246 4.0 14.0 0.00 0.53 0.00 84 1031.4
20180221121304 23 292 6.0 12.0 0.00 0.53 0.00 84 1031.0
20180221115802 23 279 7.0 15.0 0.00 0.55 0.00 83 1030.9
20180221114259 24 309 6.0 14.0 0.00 0.55 0.00 83 1030.2
20180221112757 24 273 6.0 15.0 0.00 0.55 0.00 83 1030.1
20180221111255 24 309 9.0 14.0 0.00 0.55 0.00 83 1030.0
20180221105750 24 275 6.0 16.0 0.00 0.56 0.00 82 1029.6
20180221104251 25 284 8.0 14.0 0.00 0.56 0.00 83 1029.5
20180221102746 26 249 4.0 12.0 0.00 0.56 0.00 85 1029.0
20180221101240 26 275 7.0 16.0 0.00 0.56 0.00 85 1028.5
20180221095737 26 292 7.0 15.0 0.00 0.63 0.00 86 1027.7
20180221094233 27 264 4.0 14.0 0.00 0.63 0.00 88 1027.1
20180221092732 27 298 5.0 11.0 0.00 0.63 0.00 88 1027.1
20180221091229 27 285 6.0 16.0 0.00 0.63 0.00 88 1026.3